Погода в Нартане

Россия / Кабардино-Балкарская Республика     43°30′19″N   43°42′05″E
темп.,
°C
ветер,
м/с
пор.,
м/с
влажн.,
%
обл.,
%
осадки,
мм/ч
давл.,
гПа
погр.,
м
6 декабря, пн
пн600:00+6юз11555 0.0 101611
03:00+5зсз11595 0.0 101810
06:00+4з11635 0.0 101910
09:00+6юв11580 0.0 102014
12:00+10в22465 0.0 1019313
15:00+10всв224638 0.0 1020264
18:00+6ююв016037 0.0 102210
21:00+6сз11644 0.0 102210
7 декабря, вт
вт700:00+5зюз11670 0.0 102210
03:00+4зюз11700 0.0 102210
06:00+4юз00700 0.0 102210
09:00+6вюв11630 0.0 102225
12:00+10всв22520 0.0 1019254
15:00+10всв22520 0.0 1018298
18:00+6св00740 0.0 101810
21:00+5ссз11822 0.0 101610
8 декабря, ср
ср800:00+3сз11895 0.0 101513
03:00+2сз229656 0.0 101421
06:00+3сз119364 0.0 101485
09:00+4зсз118445 0.0 1014200
12:00+8ссв11645 0.0 1012250
15:00+9ссв11590 0.0 1010269
18:00+7юз11720 0.0 101210
21:00+6ююв117159 0.0 101210
9 декабря, чт
чт900:00+5ссз11740 0.0 101110
03:00+5з117548 0.0 101210
06:00+5з1170100 0.0 101410
09:00+6ю2265100 0.0 101625
12:00+10св125296 0.0 1016228
15:00+9ю006997 0.1 101840
18:00+8ю117494 0.0 102111
21:00+8зюз117593 0.0 102210
10 декабря, пт
пт1000:00+8ююз228464 0.4 102239
03:00+6юз22795 0.4 102212
06:00+6зюз21725 0.0 102311
09:00+7зюз11615 0.0 102315
12:00+10св22607 0.0 1023387
15:00+11вюв23603 0.0 1023541
18:00+8ююв11763 0.0 102510
21:00+7ююз11760 0.0 102411